Flag for U.S.A. Weather past 2 weeks in Rapid City, South Dakota, U.S.A.

Now
58 °F

Passing clouds.


Feels Like: 59 °F
Forecast: 49 / 65 °F
Wind: 3 mph from Northwest

Location: Ellsworth Air Force Base

Current Time: Sep 1, 2014 at 8:41:03 AM

Latest Report: Sep 1, 2014 at 7:58 AM


Visibility: 10 mi

Pressure: 29.92 "Hg

Humidity: 77%

Dew point: 51 °F

Location of Rapid CityLocation

Historic Weather in Rapid City — Graph

°F

Rapid City temperature yesterday

Maximum temperature yesterday: 70 °F (at 12:58 PM)
Minimum temperature yesterday: 51 °F (at 11:58 PM)
Average temperature yesterday: 59 °F

Past Weeks' High & Low Weather Summary

 TemperatureHumidityPressure
High88 °F (Aug 30, 3:58 PM)100% (Aug 22, 5:58 AM)30.18 "Hg (Aug 22, 5:58 AM)
Low49 °F (Aug 25, 4:58 AM)30% (Aug 30, 4:58 PM)29.57 "Hg (Aug 30, 7:58 PM)
Average67 °F70%29.90 "Hg
* Reported Aug 17 6:58 AM — Sep 1 6:58 AM, Rapid City, Weather by CustomWeather, © 2014

Note: Actual official high and low records may vary slightly from our data, if they occured in-between our weather recording intervals... More about our weather records

Advertising

Rapid City weather history for previous 24 hours

 ConditionsComfort  
Time TempWeatherWind HumidityBarometerVisibility
6:58 AM
Sep 1
51 °FClear.3 mph88%29.90 "Hg10 mi
5:58 AM52 °FPassing clouds.6 mph83%29.89 "Hg10 mi
4:58 AM50 °FClear.7 mph86%29.89 "Hg10 mi
3:58 AM50 °FClear.6 mph85%29.89 "Hg10 mi
2:58 AM51 °FPassing clouds.6 mph85%29.88 "Hg10 mi
1:58 AM51 °FClear.6 mph84%29.88 "Hg10 mi
12:58 AM50 °FPassing clouds.6 mph89%29.85 "Hg10 mi
11:58 PM
Aug 31
51 °FClear.9 mph91%29.84 "Hg10 mi
10:58 PM51 °FClear.8 mph94%29.86 "Hg10 mi
9:58 PM55 °FPassing clouds.13 mph89%29.87 "Hg10 mi
8:58 PM58 °FPassing clouds.10 mph88%29.83 "Hg10 mi
7:58 PM56 °FSunny.7 mph95%29.81 "Hg10 mi
6:58 PM60 °FSunny.3 mph86%29.81 "Hg10 mi
5:58 PM59 °FScattered clouds.3 mph91%29.81 "Hg10 mi
4:58 PM57 °FPartly sunny.2 mph94%29.80 "Hg10 mi
3:59 PM57 °FRain. Fog.8 mph94%29.80 "Hg4 mi
2:58 PM61 °FLight rain. More clouds than sun.7 mph87%29.76 "Hg8 mi
1:58 PM63 °FThunderstorms. More clouds than sun.9 mph83%29.77 "Hg9 mi
12:58 PM70 °FCloudy.8 mph54%29.73 "Hg10 mi
11:58 AM70 °FPassing clouds.5 mph61%29.74 "Hg10 mi
10:58 AM66 °FPartly sunny.5 mph73%29.75 "Hg10 mi
9:59 AM63 °FDrizzle. Partly sunny.7 mph77%29.80 "Hg10 mi
8:58 AM63 °FSunny.5 mph74%29.74 "Hg10 mi
Weather by CustomWeather, © 2014

See weather overviewHow to use our weather pages